Location: Vista Encantada
(35.1109°N, 106.5681°W)
Time: 09:14:10
(UTC+00:00)

Cosmos 1300 - Pass Details

Date: 29 October 2020
Orbit: 511 x 514 km, 82.5° (Epoch: 04 December)

Event Time Altitude Azimuth Distance (km) Brightness Sun altitude
Rises 12:46:25 0° 332° (NNW) 2,631 5.9 -8.5°
Reaches altitude 10° 12:49:14 10° 309° (NW) 1,739 4.8 -8.0°
Maximum altitude 12:51:30 15° 272° (W) 1,426 4.3 -7.5°
Drops below altitude 10° 12:53:46 10° 235° (SW) 1,730 5.0 -7.1°
Sets 12:56:34 0° 212° (SSW) 2,609 6.1 -6.5°
